Regional Weather Roundup
Issued by NWS Northern Indiana

Home | Current Version | Previous Version | Graphics & Text | Print | Product List | Glossary On
Versions: 1 2 3 4 5 6 7 8 9 10 11 12 13 14 15 16 17 18 19 20 21 22 23 24 25 26 27 28 29 30 31 32 33 34 35 36 37 38 39 40 41 42 43 44 45 46 47 48 49 50
000
ASUS43 KIWX 210201
RWRIWX

KIWX WEATHER ROUNDUP
NATIONAL WEATHER SERVICE NORTHERN INDIANA
1000 PM EDT SUN AUG 20 2017

NOTE: "FAIR" INDICATES FEW OR NO CLOUDS BELOW 12,000 FEET WITH NO
SIGNIFICANT WEATHER AND/OR OBSTRUCTIONS TO VISIBILITY.

* THESE STATIONS ARE NOT UNDER NWS QUALITY CONTROL. THEY ALSO MAY NOT
  REPORT WEATHER SUCH AS PRECIPITATION OR FOG.

INZ001>027-210300-
NORTHERN INDIANA

CITY           SKY/WX    TMP DP  RH WIND       PRES   REMARKS
GARY*          CLOUDY    77  70  78 SE3       30.05R
SOUTH BEND     CLOUDY    78  67  68 S7        30.07R
GOSHEN         CLOUDY    74  67  78 S3        30.07R
MONTICELLO*    MOCLDY    78  69  73 CALM      30.05R
FORT WAYNE     MOCLDY    72  65  78 CALM      30.08R
PERU/GRISSOM   PTCLDY    75  67  77 CALM      30.07R

$$
INZ028>050-210300-
CENTRAL INDIANA

CITY           SKY/WX    TMP DP  RH WIND       PRES   REMARKS
LAFAYETTE      MOCLDY    76  69  79 E3        30.04R
KOKOMO*        PTCLDY    74  69  85 NE5       30.09R
MUNCIE*        CLOUDY    73  68  84 SE3       30.08S
INDIANAPOLIS   PTCLDY    80  68  66 SE7       30.06R

$$
MIZ043>046-050>051-056>058-064>065-071>073-077>080-210300-
SOUTHWEST LOWER MICHIGAN

CITY           SKY/WX    TMP DP  RH WIND       PRES   REMARKS
BATTLE CREEK   MOCLDY    75  64  68 S3        30.08R
BENTON HARBOR  CLOUDY    78  65  63 S3        30.05R
COLDWATER*     CLOUDY    74  67  80 CALM      30.08S
HILLSDALE*     CLOUDY    70  66  88 CALM      30.09S
HOLLAND        CLOUDY    71  66  84 CALM      30.05R
GRAND RAPIDS   CLOUDY    73  67  81 SE3       30.06R
KALAMAZOO      PTCLDY    76  62  62 S5        30.07R
STURGIS*       MOCLDY    71  67  87 CALM      30.07S
THREE RIVERS*  FAIR      75  65  71 CALM      30.07S

$$
OHZ001>008-015>018-024>025-210300-
NORTHWEST OHIO

CITY           SKY/WX    TMP DP  RH WIND       PRES   REMARKS
DEFIANCE       CLOUDY    73  68  84 CALM      30.07S
FINDLAY        MOCLDY    74  68  81 NW3       30.06F
TOLEDO EXPRESS CLOUDY    73  70  90 NE3       30.08R
TOLEDO METCALF PTCLDY    75  69  81 E5        30.09R
LIMA           CLEAR     69  67  93 CALM      30.09S

$$
AND FOR LAKE MICHIGAN COASTAL AND OPEN LAKE BUOY OBSERVATIONS

STATION/POSITION TEMP    WIND        PRES    VSBY  WAVE
                 AIR SEA DIR/SP/G                  HT/PER
                 (F)     (DEG/KT/KT) (MB)    (MI)  (FT/S)
CALUMET HARBOR    81     130/  1/  2 1016.3R
MICHIGAN CITY     80     140/  7/  8   N/A
SAINT JOSEPH      80     180/  2/  4 1017.9
SOUTH LAKE BUOY   74 72  110/  6/  8 1016.2          1
4 MI NW BRIDGMAN  79 76  190/  8/  8 1016.8R         1
MICHIGAN CITY     78 76  170/  6/  8   N/A           1

$$
&&




USA.gov is the U.S. government's official web portal to all federal, state and local government web resources and services.